• Processing (Info)

  • MPEC 2013-L33 : 2013 LC7

    The following Minor Planet Electronic Circular may be linked-to from your own Web pages, but must not otherwise be redistributed electronically.

    A form allowing access to any MPEC is at the bottom of this page.


    Read MPEC 2013-L32 Read MPEC 2013-L34


    M.P.E.C. 2013-L33                                Issued 2013 June 7, 20:23 UT
    
         The Minor Planet Electronic Circulars contain information on unusual
             minor planets and routine data on comets.  They are published
       on behalf of Commission 20 of the International Astronomical Union by the
              Minor Planet Center, Smithsonian Astrophysical Observatory,
                              Cambridge, MA 02138, U.S.A.
    
                 Prepared using the Tamkin Foundation Computer Network
    
                                  MPC@CFA.HARVARD.EDU
                URL https://www.minorplanetcenter.net/    ISSN 1523-6714
    
                                       2013 LC7
    
    Observations:
         K13L07C* C2013 06 04.34572 20 58 44.32 +15 12 37.4          18.5 VuEL033703
         K13L07C  C2013 06 04.35133 20 58 46.84 +15 12 51.4          18.7 VuEL033703
         K13L07C  C2013 06 04.35702 20 58 49.29 +15 13 07.6          18.2 VuEL033703
         K13L07C  C2013 06 04.36282 20 58 51.99 +15 13 22.4          18.3 VuEL033703
         K13L07C  C2013 06 04.38798 20 59 03.36 +15 14 27.5          18.3 RtEL033H01
         K13L07C  C2013 06 04.39620 20 59 07.09 +15 14 49.2          18.1 RtEL033H01
         K13L07C  C2013 06 04.40360 20 59 10.45 +15 15 08.6          18.2 RtEL033H01
         K13L07C  C2013 06 04.40499 20 59 11.18 +15 15 13.6          18.6 VuEL033703
         K13L07C  C2013 06 04.41178 20 59 14.28 +15 15 31.5          18.5 VuEL033703
         K13L07C  C2013 06 04.41190 20 59 14.22 +15 15 30.6          18.0 RtEL033H01
         K13L07C  C2013 06 04.41854 20 59 17.37 +15 15 49.2          18.6 VuEL033703
         K13L07C  C2013 06 04.72824 21 01 44.47 +15 29 31.5          19.2 RoEL033300
         K13L07C  C2013 06 04.73318 21 01 46.77 +15 29 45.3          19.3 RoEL033300
         K13L07C  C2013 06 04.73648 21 01 48.34 +15 29 53.4          19.6 RoEL033300
         K13L07C  C2013 06 04.73812 21 01 49.15 +15 29 57.9          19.6 RoEL033300
         K13L07C  C2013 06 04.73977 21 01 49.91 +15 30 02.0          19.4 RoEL033300
         K13L07C KC2013 06 04.97675 21 03 47.35 +15 40 39.2                qEL033J95
         K13L07C KC2013 06 04.98633 21 03 52.15 +15 41 05.9                qEL033J95
         K13L07C KC2013 06 04.99495 21 03 56.42 +15 41 29.8          18.8 RqEL033J95
         K13L07C KC2013 06 05.01972721 04 08.85 +15 42 42.2          18.7 VuEL033I93
         K13L07C KC2013 06 05.02596721 04 11.97 +15 43 00.0          18.7 VuEL033I93
         K13L07C KC2013 06 05.03316721 04 15.55 +15 43 20.0          18.7 VuEL033I93
         K13L07C KC2013 06 05.03928721 04 18.61 +15 43 37.5          18.5 VuEL033I93
         K13L07C KC2013 06 05.33475821 06 49.99 +15 58 13.9          18.7 RqEL033W86
         K13L07C KC2013 06 05.33742121 06 51.36 +15 58 21.7          18.5 RqEL033W86
         K13L07C KC2013 06 05.34028721 06 52.83 +15 58 29.9          18.6 RqEL033W86
         K13L07C KC2013 06 05.34294821 06 54.20 +15 58 37.4          18.7 RqEL033W86
         K13L07C  C2013 06 05.41459 21 07 32.54 +16 01 29.6          18.6 RcEL033854
         K13L07C  C2013 06 05.41792 21 07 34.28 +16 01 39.2          18.7 RcEL033854
         K13L07C KC2013 06 05.98203 21 12 46.94 +16 29 24.0          18.4 VtEL033C95
         K13L07C KC2013 06 05.99429 21 12 53.94 +16 30 02.1          18.5 VtEL033C95
         K13L07C KC2013 06 06.00716 21 13 01.31 +16 30 41.6          18.2 VtEL033C95
         K13L07C KC2013 06 06.05588 21 13 29.15 +16 33 08.7                qEL033J95
         K13L07C KC2013 06 06.05753 21 13 30.08 +16 33 14.0          18.5 RqEL033J95
         K13L07C KC2013 06 06.07237 21 13 39.39 +16 34 10.4          18.9 VqEL033954
         K13L07C KC2013 06 06.07876 21 13 43.09 +16 34 31.4          18.5 VqEL033954
         K13L07C KC2013 06 06.08645 21 13 47.52 +16 34 55.4          18.8 VqEL033954
         K13L07C KC2013 06 06.12587 21 14 09.72 +16 36 54.5          17.8 RqEL033I89
         K13L07C KC2013 06 06.12850 21 14 11.23 +16 37 02.1          18.3 RqEL033I89
         K13L07C KC2013 06 06.13025 21 14 12.22 +16 37 07.0          18.3 RqEL033I89
         K13L07C KC2013 06 06.34951 21 16 22.56 +16 49 14.3          18.3 RqEL033X13
         K13L07C KC2013 06 06.35153 21 16 23.71 +16 49 20.7          18.4 RqEL033X13
         K13L07C KC2013 06 06.35375 21 16 25.06 +16 49 27.8          18.0 RqEL033X13
         K13L07C KC2013 06 06.36146 21 16 30.66 +16 49 10.5          18.1 RqEL033H36
         K13L07C KC2013 06 06.36289 21 16 31.51 +16 49 15.3          18.3 RqEL033H36
         K13L07C KC2013 06 06.37392 21 16 38.10 +16 49 50.6          17.9 RqEL033H36
         K13L07C KC2013 06 06.43585 21 17 15.65 +16 53 12.0          18.6 RqEL033448
         K13L07C KC2013 06 06.44099 21 17 18.71 +16 53 28.2          18.6 RqEL033448
         K13L07C KC2013 06 06.44631 21 17 21.89 +16 53 45.5          18.6 RqEL033448
         K13L07C KC2013 06 06.45117 21 17 24.82 +16 54 01.0          18.6 RqEL033448
         K13L07C KC2013 06 06.45668 21 17 28.16 +16 54 18.7          18.6 RqEL033448
         K13L07C $C2013 06 06.61020 21 19 03.61 +17 02 41.0          18.1 RuEL033F65
         K13L07C $C2013 06 06.61901 21 19 09.03 +17 03 09.8          17.9 RuEL033F65
         K13L07C KC2013 06 06.99793 21 23 16.59 +17 23 44.3          19.4 VqEL033198
         K13L07C KC2013 06 07.00059 21 23 18.37 +17 23 53.6          19.4 VqEL033198
         K13L07C KC2013 06 07.00328 21 23 20.18 +17 24 02.3          19.3 VqEL033198
         K13L07C KC2013 06 07.36493 21 27 28.38 +17 44 52.3          18.2 RqEL033H36
         K13L07C KC2013 06 07.36693 21 27 29.74 +17 44 59.5          18.2 RqEL033H36
         K13L07C KC2013 06 07.36886 21 27 31.09 +17 45 06.5          18.2 RqEL033H36
    
    Observer details:
    198 Wildberg.  Observer R. Apitzsch.  0.35-m f/3.1 reflector + CCD.
    300 Bisei Spaceguard Center--BATTeRS.  Observers A. Asami, K. Nishiyama.
        1.0-m f/3.0 reflector + CCD.
    448 Desert Moon Observatory.  Observer B. L. Stevens.  0.3-m
        Schmidt-Cassegrain + CCD.
    703 Catalina Sky Survey.  Observer R. A. Kowalski.  Measurers A. Boattini,
        E. J. Christensen, A. R. Gibbs, A. D. Grauer, R. E. Hill, J. A. Johnson,
        R. A. Kowalski, S. M. Larson, R. H. McNaught, F. C. Shelly.  0.68-m
        Schmidt + CCD.
    854 Sabino Canyon Observatory, Tucson.  Observer J. E. McGaha.  0.36-m f/10.0
        Schmidt-Cassegrain + CCD.
    954 Teide Observatory.  Observer N. D. Diaz.  0.26-m f/11.6 reflector + CCD.
    C95 SATINO Remote Observatory, Haute Provence.  Observers C. Liefke,
        L. Warmuth.  0.60-m f/3.2 Newtonian reflector + CCD.
    F65 Haleakala-Faulkes Telescope North.  Observers P. Campbell, N. Howes,
        E. Guido.  Measurers N. Howes, E. Guido.  2.0-m f/10.0 Ritchey-Chretien
        + CCD.
    H01 Magdalena Ridge Observatory, Socorro.  Observer W. H. Ryan.  2.4-m f/8.9
        reflector + CCD.
    H36 Sandlot Observatory, Scranton.  Observer G. Hug.  0.56-m reflector + CCD.
    I89 iTelescope Observatory, Nerpio.  Observers C. Jacques, E. Pimentel.
        Measurer C. Jacques.  0.32-m f/8.0 astrograph + CCD.
    I93 St Pardon de Conques.  Observer F. Losse.  0.40-m f/3.7 reflector + CCD.
    J95 Great Shefford.  Observer P. Birtwhistle.  0.40-m f/6.0 Schmidt-Cassegrain
        + CCD.
    W86 Cerro Tololo-LCOGT B.  Observers E. J. Christensen, S. M. Larson,
        T. Lister.  Measurer T. Lister.  1.0-m f/8 Ritchey-Chretien + CCD.
    X13 Observatorio Remoto Bosque Alegre.  Observer C. Colazo.  0.28-m f/4.0
        reflector + CCD.
    
    Orbital elements:
    2013 LC7                                                 Earth MOID = 0.0612 AU
    Epoch 2013 Apr. 18.0 TT = JDT 2456400.5                 MPC
    M 306.01386              (2000.0)            P               Q
    n   0.53532862     Peri.  298.89865     +0.63660897     -0.42627802
    a   1.5021815      Node    93.75828     +0.70699298     +0.65546784
    e   0.7956314      Incl.   40.09436     -0.30804212     +0.62341716
    P   1.84           H   19.4           G   0.15           U   9
    Residuals in seconds of arc
    130604 703  0.1-  0.5+    130605 I93  0.3-  0.1-    130606 X13  0.5+  0.1-
    130604 703  0.4-  0.2-    130605 I93  0.4-  0.3-    130606 X13  0.2-  0.1-
    130604 703 (2.3-  1.0+)   130605 I93  0.2-  0.1-    130606 X13  0.3+  0.0
    130604 703  1.3-  0.5+    130605 W86  0.3-  0.2-    130606 H36  0.2+  0.1-
    130604 H01  0.1-  0.2-    130605 W86  0.2-  0.1-    130606 H36  0.1+  0.1+
    130604 H01  0.1-  0.2-    130605 W86  0.3-  0.1-    130606 H36  0.2+  0.1+
    130604 H01  0.0   0.3-    130605 W86  0.2-  0.3-    130606 448  0.2+  0.0
    130604 703  0.3-  0.4+    130605 854  0.1-  0.1+    130606 448  0.2-  0.2-
    130604 703  0.0   0.4+    130605 854  0.0   0.0     130606 448  0.5-  0.0
    130604 H01  0.0   0.1-    130605 C95  0.4-  0.4-    130606 448  0.5-  0.1-
    130604 703  0.2+  0.3+    130605 C95  0.3-  0.3-    130606 448  0.2-  0.0
    130604 300  0.3+  0.1+    130606 C95  0.0   0.6-    130606 F65  0.3-  0.1-
    130604 300  0.3-  0.4+    130606 J95  0.1-  0.3-    130606 F65  0.4-  0.1+
    130604 300  0.2-  0.5-    130606 J95  0.4-  0.1-    130606 198  0.4-  0.3+
    130604 300  0.3+  0.4-    130606 954  0.6-  0.5-    130607 198  0.1-  0.5+
    130604 300  0.1-  0.8-    130606 954  0.3-  0.5+    130607 198  0.3+  0.1+
    130604 J95  0.4+  0.2+    130606 954  0.1-  0.5+    130607 H36  0.5+  0.0
    130604 J95  0.9+  0.1+    130606 I89  0.9+  1.0+    130607 H36  0.1+  0.1+
    130604 J95  0.5+  0.1-    130606 I89  0.9+  0.4+    130607 H36  0.2+  0.3+
    130605 I93  0.5-  0.4-    130606 I89  0.6+  0.2-
    
    Ephemeris:
    2013 LC7                 a,e,i = 1.50, 0.80, 40                  q = 0.3070
    Date    TT    R. A. (2000) Decl.     Delta      r     Elong.  Phase     V
    2013 05 08    19 36 07.1 +06 09 10   0.8135  1.4784   107.9    40.5    21.4
    ...
    2013 05 23    20 04 58.6 +09 34 08   0.5128  1.2981   112.5    46.1    20.3
    ...
    2013 05 31    20 32 35.9 +12 36 57   0.3581  1.1929   111.6    52.2    19.5
    ...
    2013 06 06    21 12 55.3 +16 30 37   0.2486  1.1093   106.0    61.6    18.8
    2013 06 07    21 23 16.0 +17 24 11   0.2314  1.0950   104.2    64.0    18.7
    2013 06 08    21 35 18.5 +18 23 13   0.2148  1.0805   102.1    66.7    18.6
    ...
    2013 06 14    23 50 25.4 +25 13 16   0.1370  0.9910    75.8    96.5    18.5
    ...
    2013 06 22    04 22 55.3 +15 30 49   0.1706  0.8642    24.7   150.5    23.8
    ...
    2013 07 07    06 22 57.1 +04 34 09   0.4672  0.6025    20.7   143.5    24.0
    
    A. U. Tomatic                (C) Copyright 2013 MPC           M.P.E.C. 2013-L33
    

    Read MPEC 2013-L32 Read MPEC 2013-L34


    MPEC number:

    Enter an MPEC number in one of the following forms:

    • 1997-B01 (the full form)
    • J97B01 (the packed version of the full form)
    • B01 (the abbreviated form)